Tracking 18843 objects as of 20-November-2017
HD Live streaming from Space Station
objects crossing your sky now

FENGYUN 1C DEB

Track FENGYUN 1C DEB now!
10-day predictions


NORAD ID: 29918
Int'l Code: 1999-025HQ
Perigee: 825.3 km
Apogee: 848.7 km
Inclination: 99.0 °
Period: 101.5 minutes
Semi major axis: 7207 km
RCS: 0.0927 m2 (small)
Launch date: May 10, 1999
Source: People's Republic of China (PRC)
Launch site: Taiyaun Space Center, China (TSC)

Note: This is SATELLITE DEBRIS
aabbcc
Your satellite tracking list
Your tracking list is empty




NASA's NSSDC Master Catalog

Two Line Element Set (TLE):
1 29918U 99025HQ  17323.94887572 +.00000767 +00000-0 +39142-3 0  9992
2 29918 099.0138 317.1971 0016249 133.8523 287.3594 14.18675548559261
Source of the keplerian elements: AFSPC